Time,TemperatureF,DewpointF,PressureIn,WindDirection,WindDirectionDegrees,WindSpeedMPH,WindSpeedGustMPH,Humidity,HourlyPrecipIn,Conditions,Clouds,dailyrainin,SoftwareType,DateUTC
2013-01-12 00:02:00,16.0,5.0,29.99,SSE,158,3.0,3.0,62,0.00,,,0.00,,2013-01-12 08:02:00,
2013-01-12 00:11:00,16.0,5.0,29.99,SSE,158,3.0,3.0,62,0.00,,,0.00,,2013-01-12 08:11:00,
2013-01-12 00:22:00,16.0,5.0,29.99,SSE,158,3.0,5.0,62,0.00,,,0.00,,2013-01-12 08:22:00,
2013-01-12 00:32:00,16.0,6.0,29.99,SSE,158,3.0,5.0,63,0.00,,,0.00,,2013-01-12 08:32:00,
2013-01-12 00:42:00,16.0,6.0,29.99,SSE,158,3.0,5.0,63,0.00,,,0.00,,2013-01-12 08:42:00,
2013-01-12 00:52:00,15.0,5.0,29.99,SSE,158,3.0,5.0,63,0.00,,,0.00,,2013-01-12 08:52:00,
2013-01-12 01:02:00,15.0,5.0,29.99,SSE,158,3.0,3.0,64,0.00,,,0.00,,2013-01-12 09:02:00,
2013-01-12 01:11:00,15.0,5.0,29.99,SSE,158,3.0,3.0,64,0.00,,,0.00,,2013-01-12 09:11:00,
2013-01-12 01:22:00,15.0,5.0,29.99,SSE,158,3.0,3.0,64,0.00,,,0.00,,2013-01-12 09:22:00,
2013-01-12 01:32:00,14.0,4.0,29.99,SE,142,3.0,5.0,63,0.00,,,0.00,,2013-01-12 09:32:00,
2013-01-12 01:42:00,14.0,4.0,29.99,SE,142,3.0,5.0,63,0.00,,,0.00,,2013-01-12 09:42:00,
2013-01-12 01:52:00,14.0,4.0,29.99,SSE,158,3.0,5.0,64,0.00,,,0.00,,2013-01-12 09:52:00,
2013-01-12 02:02:00,14.0,4.0,29.99,SSE,158,3.0,6.0,63,0.00,,,0.00,,2013-01-12 10:02:00,
2013-01-12 02:11:00,14.0,4.0,29.99,SSE,158,3.0,6.0,63,0.00,,,0.00,,2013-01-12 10:11:00,
2013-01-12 02:22:00,14.0,4.0,29.99,SE,146,3.0,6.0,64,0.00,,,0.00,,2013-01-12 10:22:00,
2013-01-12 02:32:00,15.0,5.0,29.99,SSE,158,3.0,6.0,63,0.00,,,0.00,,2013-01-12 10:32:00,
2013-01-12 02:42:00,15.0,5.0,29.99,SSE,158,3.0,6.0,63,0.00,,,0.00,,2013-01-12 10:42:00,
2013-01-12 02:52:00,15.0,5.0,29.99,SSE,158,4.0,5.0,64,0.00,,,0.00,,2013-01-12 10:52:00,
2013-01-12 03:02:00,15.0,5.0,29.99,SSE,158,4.0,6.0,63,0.00,,,0.00,,2013-01-12 11:02:00,
2013-01-12 03:12:00,15.0,5.0,29.99,SSE,158,4.0,6.0,63,0.00,,,0.00,,2013-01-12 11:12:00,
2013-01-12 03:22:00,14.0,4.0,29.99,SSE,158,5.0,7.0,63,0.00,,,0.00,,2013-01-12 11:22:00,
2013-01-12 03:32:00,14.0,4.0,29.96,SSE,158,5.0,6.0,63,0.00,,,0.00,,2013-01-12 11:32:00,
2013-01-12 03:42:00,14.0,4.0,29.96,SSE,158,5.0,6.0,63,0.00,,,0.00,,2013-01-12 11:42:00,
2013-01-12 03:52:00,14.0,4.0,29.96,SE,125,6.0,9.0,64,0.00,,,0.00,,2013-01-12 11:52:00,
2013-01-12 04:02:00,14.0,4.0,29.96,SSE,158,4.0,7.0,63,0.00,,,0.00,,2013-01-12 12:02:00,
2013-01-12 04:11:00,14.0,4.0,29.96,SSE,158,4.0,7.0,63,0.00,,,0.00,,2013-01-12 12:11:00,
2013-01-12 04:22:00,14.0,4.0,29.96,South,169,2.0,6.0,64,0.00,,,0.00,,2013-01-12 12:22:00,
2013-01-12 04:32:00,13.0,3.0,29.96,ESE,112,2.0,3.0,64,0.00,,,0.00,,2013-01-12 12:32:00,
2013-01-12 04:42:00,13.0,3.0,29.96,ESE,112,2.0,3.0,64,0.00,,,0.00,,2013-01-12 12:42:00,
2013-01-12 04:52:00,13.0,3.0,29.96,SSE,158,3.0,5.0,64,0.00,,,0.00,,2013-01-12 12:52:00,
2013-01-12 05:02:00,13.0,3.0,29.96,SSE,158,3.0,3.0,64,0.00,,,0.00,,2013-01-12 13:02:00,
2013-01-12 05:11:00,13.0,3.0,29.96,SSE,158,3.0,3.0,64,0.00,,,0.00,,2013-01-12 13:11:00,
2013-01-12 05:22:00,14.0,4.0,29.96,SSE,158,3.0,6.0,64,0.00,,,0.00,,2013-01-12 13:22:00,
2013-01-12 05:33:00,14.0,4.0,29.96,SSE,158,3.0,6.0,64,0.00,,,0.00,,2013-01-12 13:33:00,
2013-01-12 05:42:00,14.0,4.0,29.96,SSE,158,3.0,6.0,64,0.00,,,0.00,,2013-01-12 13:42:00,
2013-01-12 05:52:00,13.0,3.0,29.96,SSE,158,7.0,8.0,64,0.00,,,0.00,,2013-01-12 13:52:00,
2013-01-12 06:02:00,13.0,3.0,29.96,SE,144,6.0,8.0,64,0.00,,,0.00,,2013-01-12 14:02:00,
2013-01-12 06:12:00,13.0,3.0,29.96,SE,144,6.0,8.0,64,0.00,,,0.00,,2013-01-12 14:12:00,
2013-01-12 06:22:00,13.0,3.0,29.96,SSE,158,4.0,8.0,64,0.00,,,0.00,,2013-01-12 14:22:00,
2013-01-12 06:32:00,14.0,4.0,29.99,SSE,158,4.0,6.0,64,0.00,,,0.00,,2013-01-12 14:32:00,
2013-01-12 06:43:00,14.0,4.0,29.99,SSE,158,4.0,6.0,64,0.00,,,0.00,,2013-01-12 14:43:00,
2013-01-12 06:53:00,14.0,4.0,29.99,SSE,158,2.0,3.0,64,0.00,,,0.00,,2013-01-12 14:53:00,
2013-01-12 07:03:00,13.0,3.0,29.99,SSE,158,3.0,5.0,64,0.00,,,0.00,,2013-01-12 15:03:00,
2013-01-12 07:12:00,13.0,3.0,29.99,SSE,158,3.0,5.0,64,0.00,,,0.00,,2013-01-12 15:12:00,
2013-01-12 07:22:00,13.0,3.0,29.99,SSE,158,3.0,5.0,64,0.00,,,0.00,,2013-01-12 15:22:00,
2013-01-12 07:33:00,13.0,3.0,29.99,SSE,158,3.0,5.0,64,0.00,,,0.00,,2013-01-12 15:33:00,
2013-01-12 07:42:00,13.0,3.0,29.99,SSE,158,3.0,5.0,64,0.00,,,0.00,,2013-01-12 15:42:00,
2013-01-12 07:52:00,13.0,3.0,29.99,SSE,158,3.0,3.0,64,0.00,,,0.00,,2013-01-12 15:52:00,
2013-01-12 08:02:00,14.0,4.0,29.99,SSE,149,2.0,3.0,64,0.00,,,0.00,,2013-01-12 16:02:00,
2013-01-12 08:12:00,14.0,4.0,29.99,SSE,149,2.0,3.0,64,0.00,,,0.00,,2013-01-12 16:12:00,
2013-01-12 08:22:00,14.0,4.0,29.99,SE,133,2.0,3.0,64,0.00,,,0.00,,2013-01-12 16:22:00,
2013-01-12 08:32:00,15.0,5.0,29.99,SSE,158,3.0,7.0,63,0.00,,,0.00,,2013-01-12 16:32:00,
2013-01-12 08:42:00,15.0,5.0,29.99,SSE,158,3.0,7.0,63,0.00,,,0.00,,2013-01-12 16:42:00,
2013-01-12 08:52:00,16.0,6.0,29.99,SSE,158,3.0,5.0,63,0.00,,,0.00,,2013-01-12 16:52:00,
2013-01-12 09:02:00,17.0,7.0,29.99,SSE,158,4.0,5.0,63,0.00,,,0.00,,2013-01-12 17:02:00,
2013-01-12 09:12:00,17.0,7.0,29.99,SSE,158,4.0,5.0,63,0.00,,,0.00,,2013-01-12 17:12:00,
2013-01-12 09:22:00,19.0,8.0,29.99,SE,126,5.0,6.0,62,0.00,,,0.00,,2013-01-12 17:22:00,
2013-01-12 09:32:00,20.0,8.0,29.99,SSE,158,3.0,5.0,60,0.00,,,0.00,,2013-01-12 17:32:00,
2013-01-12 09:42:00,20.0,8.0,29.99,SSE,158,3.0,5.0,60,0.00,,,0.00,,2013-01-12 17:42:00,
2013-01-12 09:53:00,21.0,9.0,29.99,SSE,158,2.0,3.0,60,0.00,,,0.00,,2013-01-12 17:53:00,
2013-01-12 10:02:00,20.0,9.0,30.02,NNW,333,3.0,5.0,61,0.00,,,0.00,,2013-01-12 18:02:00,
2013-01-12 10:12:00,20.0,9.0,30.02,NNW,333,3.0,5.0,61,0.00,,,0.00,,2013-01-12 18:12:00,
2013-01-12 10:22:00,20.0,9.0,30.02,West,276,2.0,5.0,61,0.00,,,0.00,,2013-01-12 18:22:00,
2013-01-12 10:33:00,22.0,11.0,29.99,NW,312,1.0,2.0,61,0.00,,,0.00,,2013-01-12 18:33:00,
2013-01-12 10:42:00,22.0,11.0,29.99,NW,312,1.0,2.0,61,0.00,,,0.00,,2013-01-12 18:42:00,
2013-01-12 10:52:00,23.0,11.0,29.99,NNW,338,2.0,3.0,60,0.00,,,0.00,,2013-01-12 18:52:00,
2013-01-12 11:03:00,24.0,12.0,29.99,WNW,294,2.0,2.0,59,0.00,,,0.00,,2013-01-12 19:03:00,
2013-01-12 11:12:00,24.0,12.0,29.99,WNW,294,2.0,2.0,59,0.00,,,0.00,,2013-01-12 19:12:00,
2013-01-12 11:22:00,24.0,11.0,29.99,NNW,338,1.0,3.0,58,0.00,,,0.00,,2013-01-12 19:22:00,
2013-01-12 11:32:00,24.0,11.0,29.99,NNE,22,1.0,2.0,58,0.00,,,0.00,,2013-01-12 19:32:00,
2013-01-12 11:42:00,24.0,11.0,29.99,NNE,22,1.0,2.0,58,0.00,,,0.00,,2013-01-12 19:42:00,
2013-01-12 11:52:00,24.0,11.0,29.99,NNE,31,2.0,3.0,58,0.00,,,0.00,,2013-01-12 19:52:00,
2013-01-12 12:02:00,26.0,12.0,29.99,NE,55,2.0,2.0,56,0.00,,,0.00,,2013-01-12 20:02:00,
2013-01-12 12:12:00,26.0,12.0,29.99,NE,55,2.0,2.0,56,0.00,,,0.00,,2013-01-12 20:12:00,
2013-01-12 12:22:00,26.0,12.0,29.99,NE,44,2.0,3.0,56,0.00,,,0.00,,2013-01-12 20:22:00,
2013-01-12 12:32:00,28.0,14.0,29.99,ESE,103,2.0,2.0,55,0.00,,,0.00,,2013-01-12 20:32:00,
2013-01-12 12:42:00,28.0,14.0,29.99,ESE,103,2.0,2.0,55,0.00,,,0.00,,2013-01-12 20:42:00,
2013-01-12 12:52:00,28.0,14.0,29.99,NW,311,1.0,5.0,54,0.00,,,0.00,,2013-01-12 20:52:00,
2013-01-12 13:02:00,27.0,13.0,29.99,North,10,2.0,3.0,54,0.00,,,0.00,,2013-01-12 21:02:00,
2013-01-12 13:12:00,27.0,13.0,29.99,North,10,2.0,3.0,54,0.00,,,0.00,,2013-01-12 21:12:00,
2013-01-12 13:22:00,27.0,12.0,29.99,North,351,2.0,3.0,53,0.00,,,0.00,,2013-01-12 21:22:00,
2013-01-12 13:32:00,28.0,13.0,29.99,NE,38,2.0,2.0,53,0.00,,,0.00,,2013-01-12 21:32:00,
2013-01-12 13:42:00,28.0,13.0,29.99,NE,38,2.0,2.0,53,0.00,,,0.00,,2013-01-12 21:42:00,
2013-01-12 13:52:00,28.0,13.0,29.99,NNW,338,3.0,6.0,53,0.00,,,0.00,,2013-01-12 21:52:00,
2013-01-12 14:02:00,28.0,12.0,29.99,NW,325,2.0,5.0,51,0.00,,,0.00,,2013-01-12 22:02:00,
2013-01-12 14:12:00,28.0,12.0,29.99,NW,325,2.0,5.0,51,0.00,,,0.00,,2013-01-12 22:12:00,
2013-01-12 14:22:00,28.0,12.0,29.99,WNW,300,1.0,5.0,51,0.00,,,0.00,,2013-01-12 22:22:00,
2013-01-12 14:32:00,27.0,11.0,29.99,NNW,343,5.0,6.0,50,0.00,,,0.00,,2013-01-12 22:32:00,
2013-01-12 14:42:00,27.0,11.0,29.99,NNW,343,5.0,6.0,50,0.00,,,0.00,,2013-01-12 22:42:00,
2013-01-12 14:52:00,27.0,11.0,29.99,NW,315,2.0,6.0,51,0.00,,,0.00,,2013-01-12 22:52:00,
2013-01-12 15:02:00,27.0,10.0,29.99,NNW,338,5.0,7.0,48,0.00,,,0.00,,2013-01-12 23:02:00,
2013-01-12 15:12:00,27.0,10.0,29.99,NNW,338,5.0,7.0,48,0.00,,,0.00,,2013-01-12 23:12:00,
2013-01-12 15:22:00,26.0,9.0,29.99,North,8,5.0,7.0,48,0.00,,,0.00,,2013-01-12 23:22:00,
2013-01-12 15:32:00,26.0,9.0,29.99,North,349,3.0,7.0,49,0.00,,,0.00,,2013-01-12 23:32:00,
2013-01-12 15:42:00,26.0,9.0,29.99,North,349,3.0,7.0,49,0.00,,,0.00,,2013-01-12 23:42:00,
2013-01-12 15:52:00,26.0,9.0,29.99,NNW,338,3.0,6.0,49,0.00,,,0.00,,2013-01-12 23:52:00,
2013-01-12 16:02:00,25.0,9.0,30.02,NNW,338,3.0,5.0,49,0.00,,,0.00,,2013-01-13 00:02:00,
2013-01-12 16:12:00,25.0,9.0,30.02,NNW,338,3.0,5.0,49,0.00,,,0.00,,2013-01-13 00:12:00,
2013-01-12 16:22:00,25.0,9.0,30.02,NNW,342,3.0,5.0,50,0.00,,,0.00,,2013-01-13 00:22:00,
2013-01-12 16:32:00,24.0,9.0,30.02,East,90,1.0,2.0,52,0.00,,,0.00,,2013-01-13 00:32:00,
2013-01-12 16:42:00,24.0,9.0,30.02,East,90,1.0,2.0,52,0.00,,,0.00,,2013-01-13 00:42:00,
2013-01-12 16:52:00,23.0,8.0,30.02,NNW,338,2.0,3.0,52,0.00,,,0.00,,2013-01-13 00:52:00,
2013-01-12 17:02:00,21.0,7.0,30.02,SSE,164,1.0,2.0,54,0.00,,,0.00,,2013-01-13 01:02:00,
2013-01-12 17:12:00,21.0,7.0,30.02,SSE,164,1.0,2.0,54,0.00,,,0.00,,2013-01-13 01:12:00,
2013-01-12 17:22:00,20.0,6.0,30.02,SSE,158,1.0,2.0,55,0.00,,,0.00,,2013-01-13 01:22:00,
2013-01-12 17:32:00,18.0,5.0,30.02,SE,126,3.0,3.0,56,0.00,,,0.00,,2013-01-13 01:32:00,
2013-01-12 17:42:00,18.0,5.0,30.02,SE,126,3.0,3.0,56,0.00,,,0.00,,2013-01-13 01:42:00,
2013-01-12 17:52:00,18.0,5.0,30.02,ESE,112,1.0,3.0,57,0.00,,,0.00,,2013-01-13 01:52:00,
2013-01-12 18:02:00,17.0,5.0,30.02,ESE,122,2.0,2.0,58,0.00,,,0.00,,2013-01-13 02:02:00,
2013-01-12 18:12:00,17.0,5.0,30.02,ESE,122,2.0,2.0,58,0.00,,,0.00,,2013-01-13 02:12:00,
2013-01-12 18:22:00,17.0,5.0,30.02,East,92,1.0,2.0,59,0.00,,,0.00,,2013-01-13 02:22:00,
2013-01-12 18:32:00,18.0,6.0,30.02,ESE,108,2.0,2.0,59,0.00,,,0.00,,2013-01-13 02:32:00,
2013-01-12 18:42:00,18.0,6.0,30.02,ESE,108,2.0,2.0,59,0.00,,,0.00,,2013-01-13 02:42:00,
2013-01-12 18:52:00,18.0,6.0,30.02,ESE,112,2.0,3.0,59,0.00,,,0.00,,2013-01-13 02:52:00,
2013-01-12 19:02:00,18.0,6.0,30.02,ESE,112,2.0,2.0,60,0.00,,,0.00,,2013-01-13 03:02:00,
2013-01-12 19:11:00,18.0,6.0,30.02,ESE,112,2.0,2.0,60,0.00,,,0.00,,2013-01-13 03:11:00,
2013-01-12 19:22:00,17.0,6.0,30.02,ESE,112,2.0,3.0,60,0.00,,,0.00,,2013-01-13 03:22:00,
2013-01-12 19:32:00,17.0,6.0,30.02,ESE,112,3.0,3.0,60,0.00,,,0.00,,2013-01-13 03:32:00,
2013-01-12 19:42:00,17.0,6.0,30.02,ESE,112,3.0,3.0,60,0.00,,,0.00,,2013-01-13 03:42:00,
2013-01-12 19:52:00,17.0,6.0,30.02,ESE,112,2.0,3.0,60,0.00,,,0.00,,2013-01-13 03:52:00,
2013-01-12 20:02:00,16.0,5.0,30.05,ESE,117,2.0,3.0,60,0.00,,,0.00,,2013-01-13 04:02:00,
2013-01-12 20:12:00,16.0,5.0,30.05,ESE,117,2.0,3.0,60,0.00,,,0.00,,2013-01-13 04:12:00,
2013-01-12 20:22:00,16.0,5.0,30.05,ESE,117,3.0,5.0,61,0.00,,,0.00,,2013-01-13 04:22:00,
2013-01-12 20:32:00,16.0,5.0,30.05,ESE,112,3.0,5.0,62,0.00,,,0.00,,2013-01-13 04:32:00,
2013-01-12 20:42:00,16.0,5.0,30.05,ESE,112,3.0,5.0,62,0.00,,,0.00,,2013-01-13 04:42:00,
2013-01-12 20:52:00,16.0,5.0,30.05,SE,126,3.0,5.0,62,0.00,,,0.00,,2013-01-13 04:52:00,
2013-01-12 21:03:00,16.0,5.0,30.05,SSE,153,5.0,5.0,62,0.00,,,0.00,,2013-01-13 05:03:00,
2013-01-12 21:12:00,16.0,5.0,30.05,SSE,153,5.0,5.0,62,0.00,,,0.00,,2013-01-13 05:12:00,
2013-01-12 21:22:00,15.0,4.0,30.05,SE,124,3.0,5.0,62,0.00,,,0.00,,2013-01-13 05:22:00,
2013-01-12 21:32:00,15.0,5.0,30.05,SSE,158,5.0,5.0,63,0.00,,,0.00,,2013-01-13 05:32:00,
2013-01-12 21:42:00,15.0,5.0,30.05,SSE,158,5.0,5.0,63,0.00,,,0.00,,2013-01-13 05:42:00,
2013-01-12 21:52:00,15.0,5.0,30.05,SSE,158,3.0,5.0,63,0.00,,,0.00,,2013-01-13 05:52:00,
2013-01-12 22:02:00,14.0,4.0,30.05,SE,135,3.0,5.0,63,0.00,,,0.00,,2013-01-13 06:02:00,
2013-01-12 22:22:00,14.0,4.0,30.05,SSE,151,5.0,6.0,63,0.00,,,0.00,,2013-01-13 06:22:00,
2013-01-12 22:32:00,14.0,4.0,30.05,SE,124,5.0,7.0,63,0.00,,,0.00,,2013-01-13 06:32:00,
2013-01-12 22:52:00,14.0,4.0,30.05,SSE,158,3.0,6.0,63,0.00,,,0.00,,2013-01-13 06:52:00,
2013-01-12 23:02:00,14.0,4.0,30.05,SSE,158,3.0,6.0,63,0.00,,,0.00,,2013-01-13 07:02:00,
2013-01-12 23:22:00,14.0,4.0,30.05,SSE,158,3.0,5.0,63,0.00,,,0.00,,2013-01-13 07:22:00,
2013-01-12 23:32:00,14.0,4.0,30.05,SSE,158,3.0,6.0,64,0.00,,,0.00,,2013-01-13 07:32:00,
2013-01-12 23:42:00,14.0,4.0,30.05,SSE,158,3.0,6.0,64,0.00,,,0.00,,2013-01-13 07:42:00,
2013-01-12 23:52:00,13.0,3.0,30.05,SSE,158,3.0,5.0,64,0.00,,,0.00,,2013-01-13 07:52:00,